Time,TemperatureF,DewpointF,PressureIn,WindDirection,WindDirectionDegrees,WindSpeedMPH,WindSpeedGustMPH,Humidity,HourlyPrecipIn,Conditions,Clouds,dailyrainin,SoftwareType,DateUTC
2013-01-31 00:14:00,46.2,44.0,29.05,NW,320,11.0,-999.0,90,-99.99,,,0.02,weatherlink.com 1.10,2013-01-31 05:14:00,
2013-01-31 00:29:00,43.1,41.0,29.09,WNW,286,3.0,-999.0,91,-99.99,,,0.03,weatherlink.com 1.10,2013-01-31 05:29:00,
2013-01-31 00:44:00,40.8,39.0,29.11,SW,219,7.0,-999.0,92,-99.99,,,0.05,weatherlink.com 1.10,2013-01-31 05:44:00,
2013-01-31 00:59:00,39.3,37.0,29.09,WSW,246,11.0,-999.0,91,-99.99,,,0.05,weatherlink.com 1.10,2013-01-31 05:59:00,
2013-01-31 01:14:00,38.6,36.0,29.09,West,267,5.0,-999.0,91,-99.99,,,0.06,weatherlink.com 1.10,2013-01-31 06:14:00,
2013-01-31 01:29:00,38.0,36.0,29.12,SSW,209,4.0,-999.0,91,-99.99,,,0.09,weatherlink.com 1.10,2013-01-31 06:29:00,
2013-01-31 01:44:00,37.3,35.0,29.13,West,273,9.0,-999.0,92,-99.99,,,0.09,weatherlink.com 1.10,2013-01-31 06:44:00,
2013-01-31 01:58:00,36.6,35.0,29.13,WSW,238,2.0,-999.0,92,-99.99,,,0.10,weatherlink.com 1.10,2013-01-31 06:58:00,
2013-01-31 02:14:00,36.0,34.0,29.11,SSW,203,18.0,-999.0,92,-99.99,,,0.11,weatherlink.com 1.10,2013-01-31 07:14:00,
2013-01-31 02:41:00,35.2,33.0,29.13,WSW,250,3.0,-999.0,92,-99.99,,,0.13,weatherlink.com 1.10,2013-01-31 07:41:00,
2013-01-31 02:59:00,34.7,33.0,29.13,West,271,8.0,-999.0,92,-99.99,,,0.13,weatherlink.com 1.10,2013-01-31 07:59:00,
2013-01-31 03:14:00,34.7,33.0,29.14,WSW,242,15.0,-999.0,92,-99.99,,,0.14,weatherlink.com 1.10,2013-01-31 08:14:00,
2013-01-31 03:28:00,34.3,32.0,29.12,WSW,238,4.0,-999.0,92,-99.99,,,0.15,weatherlink.com 1.10,2013-01-31 08:28:00,
2013-01-31 03:44:00,34.0,32.0,29.12,WSW,240,9.0,-999.0,92,-99.99,,,0.16,weatherlink.com 1.10,2013-01-31 08:44:00,
2013-01-31 03:59:00,34.1,32.0,29.13,WSW,253,11.0,-999.0,92,-99.99,,,0.17,weatherlink.com 1.10,2013-01-31 08:59:00,
2013-01-31 04:13:00,34.1,32.0,29.14,SSW,206,19.0,-999.0,90,-99.99,,,0.19,weatherlink.com 1.10,2013-01-31 09:13:00,
2013-01-31 04:29:00,34.0,31.0,29.15,SW,229,18.0,-999.0,87,-99.99,,,0.19,weatherlink.com 1.10,2013-01-31 09:29:00,
2013-01-31 04:44:00,33.2,30.0,29.17,WSW,242,5.0,-999.0,88,-99.99,,,0.19,weatherlink.com 1.10,2013-01-31 09:44:00,
2013-01-31 04:59:00,33.4,29.0,29.18,WSW,250,9.0,-999.0,84,-99.99,,,0.19,weatherlink.com 1.10,2013-01-31 09:59:00,
2013-01-31 05:14:00,33.1,29.0,29.20,West,277,4.0,-999.0,84,-99.99,,,0.19,weatherlink.com 1.10,2013-01-31 10:14:00,
2013-01-31 05:29:00,32.1,28.0,29.22,WSW,251,11.0,-999.0,84,-99.99,,,0.19,weatherlink.com 1.10,2013-01-31 10:29:00,
2013-01-31 05:44:00,31.8,27.0,29.22,NW,309,4.0,-999.0,81,-99.99,,,0.19,weatherlink.com 1.10,2013-01-31 10:44:00,
2013-01-31 05:59:00,31.3,25.0,29.23,WSW,243,3.0,-999.0,76,-99.99,,,0.19,weatherlink.com 1.10,2013-01-31 10:59:00,
2013-01-31 06:14:00,31.0,23.0,29.24,WSW,252,6.0,-999.0,71,-99.99,,,0.19,weatherlink.com 1.10,2013-01-31 11:14:00,
2013-01-31 06:29:00,30.9,22.0,29.26,WSW,253,12.0,-999.0,69,-99.99,,,0.19,weatherlink.com 1.10,2013-01-31 11:29:00,
2013-01-31 06:44:00,30.6,20.0,29.28,West,267,6.0,-999.0,65,-99.99,,,0.19,weatherlink.com 1.10,2013-01-31 11:44:00,
2013-01-31 06:59:00,30.0,21.0,29.29,WNW,286,4.0,-999.0,68,-99.99,,,0.19,weatherlink.com 1.10,2013-01-31 11:59:00,
2013-01-31 07:14:00,29.4,21.0,29.30,West,259,5.0,-999.0,70,-99.99,,,0.19,weatherlink.com 1.10,2013-01-31 12:14:00,
2013-01-31 07:29:00,28.5,22.0,29.32,West,270,13.0,-999.0,76,-99.99,,,0.19,weatherlink.com 1.10,2013-01-31 12:29:00,
2013-01-31 07:44:00,27.6,18.0,29.33,West,271,4.0,-999.0,68,-99.99,,,0.19,weatherlink.com 1.10,2013-01-31 12:44:00,
2013-01-31 07:58:00,27.8,19.0,29.34,WSW,257,2.0,-999.0,69,-99.99,,,0.19,weatherlink.com 1.10,2013-01-31 12:58:00,
2013-01-31 08:14:00,28.1,18.0,29.35,SW,230,9.0,-999.0,67,-99.99,,,0.19,weatherlink.com 1.10,2013-01-31 13:14:00,
2013-01-31 08:29:00,27.3,17.0,29.36,WNW,291,2.0,-999.0,66,-99.99,,,0.19,weatherlink.com 1.10,2013-01-31 13:29:00,
2013-01-31 08:44:00,27.6,17.0,29.38,WNW,284,3.0,-999.0,64,-99.99,,,0.19,weatherlink.com 1.10,2013-01-31 13:44:00,
2013-01-31 08:59:00,27.2,18.0,29.39,WSW,255,3.0,-999.0,68,-99.99,,,0.19,weatherlink.com 1.10,2013-01-31 13:59:00,
2013-01-31 09:15:00,27.0,17.0,29.40,SW,215,14.0,-999.0,67,-99.99,,,0.19,weatherlink.com 1.10,2013-01-31 14:15:00,
2013-01-31 09:29:00,27.2,17.0,29.41,WNW,298,5.0,-999.0,66,-99.99,,,0.19,weatherlink.com 1.10,2013-01-31 14:29:00,
2013-01-31 09:45:00,27.3,15.0,29.41,West,278,5.0,-999.0,60,-99.99,,,0.19,weatherlink.com 1.10,2013-01-31 14:45:00,
2013-01-31 09:59:00,27.5,15.0,29.42,West,280,7.0,-999.0,60,-99.99,,,0.19,weatherlink.com 1.10,2013-01-31 14:59:00,
2013-01-31 10:29:00,27.2,19.0,29.44,WSW,251,5.0,-999.0,70,-99.99,,,0.19,weatherlink.com 1.10,2013-01-31 15:29:00,
2013-01-31 10:44:00,26.0,20.0,29.45,SW,226,3.0,-999.0,78,-99.99,,,0.19,weatherlink.com 1.10,2013-01-31 15:44:00,
2013-01-31 10:59:00,26.0,16.0,29.45,West,281,4.0,-999.0,67,-99.99,,,0.19,weatherlink.com 1.10,2013-01-31 15:59:00,
2013-01-31 11:14:00,27.3,14.0,29.45,WSW,239,6.0,-999.0,58,-99.99,,,0.19,weatherlink.com 1.10,2013-01-31 16:14:00,
2013-01-31 11:30:00,27.2,14.0,29.45,WNW,292,5.0,-999.0,58,-99.99,,,0.19,weatherlink.com 1.10,2013-01-31 16:30:00,
2013-01-31 11:44:00,27.5,14.0,29.46,West,264,7.0,-999.0,56,-99.99,,,0.19,weatherlink.com 1.10,2013-01-31 16:44:00,
2013-01-31 11:59:00,27.3,11.0,29.45,NW,323,5.0,-999.0,51,-99.99,,,0.19,weatherlink.com 1.10,2013-01-31 16:59:00,
2013-01-31 12:15:00,27.9,11.0,29.47,West,280,0.0,-999.0,50,-99.99,,,0.19,weatherlink.com 1.10,2013-01-31 17:15:00,
2013-01-31 12:29:00,27.5,11.0,29.48,WNW,287,2.0,-999.0,51,-99.99,,,0.19,weatherlink.com 1.10,2013-01-31 17:29:00,
2013-01-31 12:44:00,27.2,12.0,29.49,West,278,4.0,-999.0,53,-99.99,,,0.19,weatherlink.com 1.10,2013-01-31 17:44:00,
2013-01-31 12:59:00,26.0,13.0,29.51,SW,223,9.0,-999.0,57,-99.99,,,0.19,weatherlink.com 1.10,2013-01-31 17:59:00,
2013-01-31 13:14:00,26.4,12.0,29.50,NW,311,9.0,-999.0,54,-99.99,,,0.19,weatherlink.com 1.10,2013-01-31 18:14:00,
2013-01-31 13:29:00,27.0,12.0,29.50,West,276,2.0,-999.0,54,-99.99,,,0.19,weatherlink.com 1.10,2013-01-31 18:29:00,
2013-01-31 13:44:00,26.6,13.0,29.51,WSW,257,6.0,-999.0,56,-99.99,,,0.19,weatherlink.com 1.10,2013-01-31 18:44:00,
2013-01-31 13:59:00,27.2,10.0,29.51,WNW,298,3.0,-999.0,48,-99.99,,,0.19,weatherlink.com 1.10,2013-01-31 18:59:00,
2013-01-31 14:14:00,27.0,10.0,29.53,West,267,7.0,-999.0,49,-99.99,,,0.19,weatherlink.com 1.10,2013-01-31 19:14:00,
2013-01-31 14:29:00,27.0,10.0,29.53,West,277,3.0,-999.0,48,-99.99,,,0.19,weatherlink.com 1.10,2013-01-31 19:29:00,
2013-01-31 14:45:00,27.9,9.0,29.54,NW,314,0.0,-999.0,46,-99.99,,,0.19,weatherlink.com 1.10,2013-01-31 19:45:00,
2013-01-31 14:59:00,27.3,9.0,29.55,SW,217,10.0,-999.0,46,-99.99,,,0.19,weatherlink.com 1.10,2013-01-31 19:59:00,
2013-01-31 15:14:00,26.6,9.0,29.55,West,261,3.0,-999.0,47,-99.99,,,0.19,weatherlink.com 1.10,2013-01-31 20:14:00,
2013-01-31 15:29:00,26.7,10.0,29.56,WNW,282,2.0,-999.0,49,-99.99,,,0.19,weatherlink.com 1.10,2013-01-31 20:29:00,
2013-01-31 15:45:00,26.6,11.0,29.57,West,277,6.0,-999.0,51,-99.99,,,0.19,weatherlink.com 1.10,2013-01-31 20:45:00,
2013-01-31 15:59:00,25.7,10.0,29.58,WSW,245,18.0,-999.0,52,-99.99,,,0.19,weatherlink.com 1.10,2013-01-31 20:59:00,
2013-01-31 16:14:00,25.7,11.0,29.59,WNW,296,4.0,-999.0,55,-99.99,,,0.19,weatherlink.com 1.10,2013-01-31 21:14:00,
2013-01-31 16:29:00,25.7,12.0,29.59,West,260,12.0,-999.0,56,-99.99,,,0.19,weatherlink.com 1.10,2013-01-31 21:29:00,
2013-01-31 16:45:00,25.7,11.0,29.60,WSW,249,6.0,-999.0,54,-99.99,,,0.19,weatherlink.com 1.10,2013-01-31 21:45:00,
2013-01-31 16:59:00,25.3,11.0,29.61,West,259,5.0,-999.0,56,-99.99,,,0.19,weatherlink.com 1.10,2013-01-31 21:59:00,
2013-01-31 17:15:00,25.0,11.0,29.62,SW,236,3.0,-999.0,56,-99.99,,,0.19,weatherlink.com 1.10,2013-01-31 22:15:00,
2013-01-31 17:29:00,25.0,12.0,29.63,West,264,6.0,-999.0,58,-99.99,,,0.19,weatherlink.com 1.10,2013-01-31 22:29:00,
2013-01-31 17:45:00,24.7,12.0,29.63,West,269,6.0,-999.0,59,-99.99,,,0.19,weatherlink.com 1.10,2013-01-31 22:45:00,
2013-01-31 17:59:00,24.4,14.0,29.65,WSW,242,6.0,-999.0,64,-99.99,,,0.19,weatherlink.com 1.10,2013-01-31 22:59:00,
2013-01-31 18:14:00,24.1,12.0,29.66,West,265,3.0,-999.0,61,-99.99,,,0.19,weatherlink.com 1.10,2013-01-31 23:14:00,
2013-01-31 18:29:00,23.9,12.0,29.67,WNW,286,0.0,-999.0,62,-99.99,,,0.19,weatherlink.com 1.10,2013-01-31 23:29:00,
2013-01-31 18:44:00,23.9,12.0,29.67,WNW,284,3.0,-999.0,62,-99.99,,,0.19,weatherlink.com 1.10,2013-01-31 23:44:00,
2013-01-31 18:59:00,23.3,13.0,29.69,North,5,7.0,-999.0,65,-99.99,,,0.19,weatherlink.com 1.10,2013-01-31 23:59:00,
2013-01-31 19:14:00,23.3,13.0,29.69,WNW,296,2.0,-999.0,65,-99.99,,,0.19,weatherlink.com 1.10,2013-02-01 00:14:00,
2013-01-31 19:29:00,22.9,13.0,29.69,WNW,296,0.0,-999.0,66,-99.99,,,0.19,weatherlink.com 1.10,2013-02-01 00:29:00,
2013-01-31 19:45:00,22.5,14.0,29.69,NW,306,2.0,-999.0,69,-99.99,,,0.19,weatherlink.com 1.10,2013-02-01 00:45:00,
2013-01-31 20:00:00,22.5,13.0,29.69,WNW,300,0.0,-999.0,68,-99.99,,,0.19,weatherlink.com 1.10,2013-02-01 01:00:00,
2013-01-31 20:14:00,22.9,12.0,29.70,WNW,284,4.0,-999.0,64,-99.99,,,0.19,weatherlink.com 1.10,2013-02-01 01:14:00,
2013-01-31 20:29:00,22.9,12.0,29.70,NW,323,0.0,-999.0,62,-99.99,,,0.19,weatherlink.com 1.10,2013-02-01 01:29:00,
2013-01-31 20:44:00,22.7,11.0,29.70,West,259,0.0,-999.0,60,-99.99,,,0.19,weatherlink.com 1.10,2013-02-01 01:44:00,
2013-01-31 20:59:00,22.7,11.0,29.71,WSW,251,1.0,-999.0,61,-99.99,,,0.19,weatherlink.com 1.10,2013-02-01 01:59:00,
2013-01-31 21:15:00,22.2,11.0,29.71,SSW,205,10.0,-999.0,63,-99.99,,,0.19,weatherlink.com 1.10,2013-02-01 02:15:00,
2013-01-31 21:29:00,22.2,11.0,29.71,WSW,253,0.0,-999.0,63,-99.99,,,0.19,weatherlink.com 1.10,2013-02-01 02:29:00,
2013-01-31 21:44:00,22.2,11.0,29.71,West,277,0.0,-999.0,62,-99.99,,,0.19,weatherlink.com 1.10,2013-02-01 02:44:00,
2013-01-31 21:59:00,22.2,10.0,29.72,WNW,294,1.0,-999.0,59,-99.99,,,0.19,weatherlink.com 1.10,2013-02-01 02:59:00,
2013-01-31 22:15:00,22.4,10.0,29.73,WNW,291,4.0,-999.0,59,-99.99,,,0.19,weatherlink.com 1.10,2013-02-01 03:15:00,
2013-01-31 22:29:00,22.2,10.0,29.73,West,269,0.0,-999.0,59,-99.99,,,0.19,weatherlink.com 1.10,2013-02-01 03:29:00,
2013-01-31 22:44:00,22.1,10.0,29.73,West,267,3.0,-999.0,61,-99.99,,,0.19,weatherlink.com 1.10,2013-02-01 03:44:00,
2013-01-31 22:59:00,21.9,9.0,29.74,NNW,335,0.0,-999.0,59,-99.99,,,0.19,weatherlink.com 1.10,2013-02-01 03:59:00,
2013-01-31 23:14:00,21.9,9.0,29.74,South,173,0.0,-999.0,58,-99.99,,,0.19,weatherlink.com 1.10,2013-02-01 04:14:00,
2013-01-31 23:29:00,21.8,9.0,29.74,West,277,0.0,-999.0,59,-99.99,,,0.19,weatherlink.com 1.10,2013-02-01 04:29:00,
2013-01-31 23:45:00,21.4,9.0,29.74,WSW,255,2.0,-999.0,60,-99.99,,,0.19,weatherlink.com 1.10,2013-02-01 04:45:00,